Naples, FL

4:21 PM EDT on September 27, 2016 (GMT -0400)
Naples Municipal

Weather History for KAPF - March, 2014

Change the Weather History Date:

Thursday, March 20, 2014

  Actual Average Record
Temperature  
Mean Temperature 68 °F 70 °F  
Max Temperature 74 °F 80 °F 90 °F (1977)
Min Temperature 61 °F 60 °F 46 °F (1981)
Degree Days  
Heating Degree Days 0 0  
Month to date heating degree days 4 19  
Since 1 July heating degree days 146 252  
Cooling Degree Days 3 6  
Month to date cooling degree days 95 105  
Year to date cooling degree days 368 296  
Growing Degree Days 17 (Base 50)    
Moisture  
Dew Point 63 °F    
Average Humidity 84    
Maximum Humidity 100    
Minimum Humidity 68    
Precipitation  
Precipitation 0.00 in 0.08 in 1.78 in (1998)
Month to date precipitation 0.98 1.40  
Year to date precipitation 4.14 5.35  
Snow  
Snow 0.00 in - - ()
Month to date snowfall 0.0  
Since 1 July snowfall 0.0  
Snow Depth 0.00 in    
Sea Level Pressure  
Sea Level Pressure 30.03 in    
Wind  
Wind Speed 8 mph (NW)    
Max Wind Speed 16 mph    
Max Gust Speed 21 mph    
Visibility 9 miles    
Events      
T = Trace of Precipitation, MM = Missing Value Source: NWS Daily Summary

Daily Weather History Graph

Daily Weather History Graph

Search for Another Location

Airport or City:

Trip Planner

Search our weather history database for the weather conditions in past years. The results will help you decide how hot, cold, wet, or windy it might be!

Date:

Astronomy

Mar. 20, 2014 Rise Set
Actual Time 7:31 AM EDT 7:38 PM EDT
Civil Twilight 7:08 AM EDT 8:01 PM EDT
Nautical Twilight 6:41 AM EDT 8:28 PM EDT
Astronomical Twilight 6:14 AM EDT 8:55 PM EDT
Moon 11:32 PM EDT (3/20) 9:58 AM EDT (3/20)
Length of Visible Light 12h 53m
Length of Day
12h 07m
Waning Gibbous, 84% of the Moon is Illuminated
Mar 20
Waning Gibbous
Mar 23
Last Quarter
Mar 30
New
Apr 7
First Quarter
Apr 15
Full

Hourly Weather History & Observations

Time (EDT) Temp. Dew Point Humidity Pressure Visibility Wind Dir Wind Speed Gust Speed Precip Events Conditions
12:53 AM 64.0 °F 62.1 °F 93% 30.05 in 10.0 mi Calm Calm - N/A   Clear
1:53 AM 63.0 °F 61.0 °F 93% 30.04 in 10.0 mi Calm Calm - N/A   Clear
2:53 AM 62.1 °F 61.0 °F 96% 30.01 in 10.0 mi Calm Calm - N/A   Clear
3:53 AM 62.1 °F 59.0 °F 90% 30.00 in 10.0 mi Calm Calm - N/A   Clear
4:53 AM 62.1 °F 61.0 °F 96% 30.00 in 10.0 mi WNW 4.6 mph - N/A   Clear
5:53 AM 62.1 °F 61.0 °F 96% 30.01 in 9.0 mi ENE 3.5 mph - N/A   Clear
6:53 AM 61.0 °F 61.0 °F 100% 30.03 in 7.0 mi Calm Calm - N/A   Clear
7:53 AM 61.0 °F 61.0 °F 100% 30.04 in 6.0 mi Calm Calm - N/A   Clear
8:51 AM 64.4 °F 62.6 °F 94% 30.05 in 6.0 mi NW 6.9 mph - N/A   Mostly Cloudy
8:53 AM 64.9 °F 63.0 °F 93% 30.05 in 6.0 mi NW 8.1 mph - N/A   Mostly Cloudy
9:37 AM 64.0 °F 64.0 °F 100% 30.07 in 4.0 mi NNW 5.8 mph - N/A   Overcast
9:53 AM 64.9 °F 64.0 °F 97% 30.06 in 6.0 mi NW 6.9 mph - N/A   Mostly Cloudy
10:53 AM 70.0 °F 63.0 °F 78% 30.07 in 10.0 mi WNW 10.4 mph - N/A   Partly Cloudy
11:53 AM 73.0 °F 63.0 °F 71% 30.06 in 10.0 mi WNW 6.9 mph - N/A   Clear
12:53 PM 73.0 °F 64.0 °F 73% 30.06 in 10.0 mi WNW 15.0 mph - N/A   Clear
1:53 PM 73.0 °F 64.0 °F 73% 30.03 in 10.0 mi NW 12.7 mph - N/A   Scattered Clouds
2:53 PM 73.9 °F 64.9 °F 73% 30.02 in 10.0 mi West 12.7 mph - N/A   Scattered Clouds
3:53 PM 73.9 °F 64.9 °F 73% 30.00 in 10.0 mi WNW 12.7 mph - N/A   Partly Cloudy
4:53 PM 73.0 °F 64.9 °F 76% 29.99 in 10.0 mi WNW 13.8 mph - N/A   Partly Cloudy
5:53 PM 72.0 °F 64.9 °F 78% 29.99 in 10.0 mi WNW 12.7 mph - N/A   Scattered Clouds
6:53 PM 70.0 °F 64.9 °F 84% 29.99 in 9.0 mi NW 10.4 mph - N/A   Mostly Cloudy
7:32 PM 69.1 °F 64.0 °F 84% 30.00 in 9.0 mi NW 8.1 mph - N/A   Scattered Clouds
7:50 PM 68.0 °F 64.4 °F 88% 30.00 in 9.0 mi WNW 11.5 mph - N/A   Mostly Cloudy
7:53 PM 68.0 °F 64.9 °F 90% 29.99 in 10.0 mi WNW 9.2 mph - N/A   Mostly Cloudy
8:35 PM 68.0 °F 64.9 °F 90% 30.00 in 10.0 mi WNW 9.2 mph - N/A   Mostly Cloudy
8:53 PM 68.0 °F 64.9 °F 90% 30.01 in 9.0 mi WNW 11.5 mph - N/A   Mostly Cloudy
9:53 PM 68.0 °F 64.9 °F 90% 30.03 in 9.0 mi NW 9.2 mph - N/A   Mostly Cloudy
10:00 PM 68.0 °F 64.9 °F 90% 30.03 in 9.0 mi NW 9.2 mph - N/A   Scattered Clouds
10:32 PM 68.0 °F 64.9 °F 90% 30.05 in 9.0 mi NW 11.5 mph 17.3 mph N/A   Mostly Cloudy
10:53 PM 68.0 °F 64.9 °F 90% 30.04 in 9.0 mi NW 8.1 mph - N/A   Mostly Cloudy
11:18 PM 68.0 °F 64.9 °F 90% 30.05 in 10.0 mi NW 11.5 mph - N/A   Mostly Cloudy
11:53 PM 68.0 °F 64.9 °F 90% 30.05 in 10.0 mi NW 4.6 mph - N/A   Mostly Cloudy